Laconia, NH

11:57 AM EST on November 13, 2019 (GMT -0500)
Laconia Municipal

Weather History for KLCI - September, 2019

Change the Weather History Date:

Sunday, September 15, 2019

  Actual Average Record
Temperature  
Mean Temperature 64 °F -  
Max Temperature 73 °F 74 °F 85 °F (1993)
Min Temperature 55 °F 50 °F 37 °F (2001)
Degree Days  
Heating Degree Days 1    
Growing Degree Days 14 (Base 50)    
Moisture  
Dew Point 55 °F    
Average Humidity 80    
Maximum Humidity 100    
Minimum Humidity 46    
Precipitation  
Precipitation 0.00 in - - ()
Sea Level Pressure  
Sea Level Pressure 30.08 in    
Wind  
Wind Speed 3 mph ()    
Max Wind Speed 13 mph    
Max Gust Speed 18 mph    
Visibility 7.8 miles    
Events Fog    
Averages and records for this station are not official NWS values.
T = Trace of Precipitation, MM = Missing Value Source: Averaged Metar Reports

Daily Weather History Graph

Daily Weather History Graph

Search for Another Location

Airport or City:

Astronomy

Sep. 15, 2019 Rise Set
Actual Time 6:24 AM EDT 6:56 PM EDT
Civil Twilight 5:55 AM EDT 7:25 PM EDT
Nautical Twilight 5:21 AM EDT 7:58 PM EDT
Astronomical Twilight 4:46 AM EDT 8:34 PM EDT
Moon 8:01 PM EDT (9/15) 7:32 AM EDT (9/15)
Length of Visible Light 13h 29m
Length of Day
12h 31m
Full, 98% of the Moon is Illuminated
Sep 15
Full
Sep 21
Last Quarter
Sep 28
New
Oct 5
First Quarter
Oct 13
Full

Hourly Weather History & Observations

Time (EDT) Temp. Dew Point Humidity Pressure Visibility Wind Dir Wind Speed Gust Speed Precip Events Conditions
12:43 AM 57.2 °F 57.2 °F 100% 30.12 in 4.0 mi Calm Calm - N/A   Mostly Cloudy
12:56 AM 57.9 °F 57.0 °F 97% 30.12 in 9.0 mi Calm Calm - N/A   Mostly Cloudy
1:19 AM 59.0 °F 59.0 °F 100% 30.12 in 10.0 mi SW 3.5 mph - N/A   Overcast
1:56 AM 60.1 °F 59.0 °F 96% 30.11 in 10.0 mi Calm Calm - N/A   Clear
2:56 AM 57.9 °F 57.9 °F 100% 30.10 in 6.0 mi Calm Calm - N/A   Clear
3:19 AM 57.2 °F 55.4 °F 94% 30.10 in 1.0 mi Calm Calm - N/A   Clear
3:22 AM 57.2 °F 55.4 °F 94% 30.10 in 0.5 mi Calm Calm - N/A Fog Fog
3:34 AM 57.2 °F 57.2 °F 100% 30.10 in 1.0 mi Calm Calm - N/A   Mist
3:40 AM 55.4 °F 55.4 °F 100% 30.10 in 0.5 mi Calm Calm - N/A Fog Fog
3:51 AM 55.4 °F 55.4 °F 100% 30.10 in 1.0 mi Calm Calm - N/A   Mist
3:56 AM 57.0 °F 57.0 °F 100% 30.10 in 1.0 mi Calm Calm - N/A   Mist
4:01 AM 55.4 °F 55.4 °F 100% 30.10 in 2.0 mi Calm Calm - N/A   Partly Cloudy
4:13 AM 59.0 °F 59.0 °F 100% 30.10 in 10.0 mi Variable 3.5 mph - N/A   Clear
4:56 AM 59.0 °F 57.0 °F 93% 30.12 in 10.0 mi SW 5.8 mph - N/A   Clear
5:56 AM 55.0 °F 55.0 °F 100% 30.12 in 10.0 mi WSW 5.8 mph - N/A   Clear
6:56 AM 55.0 °F 55.0 °F 100% 30.13 in 10.0 mi SW 4.6 mph - N/A   Clear
7:56 AM 60.1 °F 57.0 °F 90% 30.13 in 10.0 mi WSW 5.8 mph - N/A   Clear
8:56 AM 64.0 °F 55.9 °F 75% 30.12 in 10.0 mi WSW 9.2 mph - N/A   Clear
9:56 AM 66.0 °F 55.9 °F 70% 30.12 in 10.0 mi WSW 10.4 mph - N/A   Partly Cloudy
10:56 AM 68.0 °F 54.0 °F 61% 30.11 in 10.0 mi WSW 10.4 mph - N/A   Scattered Clouds
11:56 AM 71.1 °F 54.0 °F 55% 30.09 in 10.0 mi West 9.2 mph - N/A   Mostly Cloudy
12:56 PM 71.1 °F 53.1 °F 53% 30.07 in 10.0 mi West 12.7 mph - N/A   Clear
1:56 PM 72.0 °F 52.0 °F 49% 30.05 in 10.0 mi West 8.1 mph 18.4 mph N/A   Partly Cloudy
2:56 PM 73.0 °F 51.1 °F 46% 30.04 in 10.0 mi West 11.5 mph - N/A   Clear
3:56 PM 73.9 °F 52.0 °F 46% 30.02 in 10.0 mi West 9.2 mph - N/A   Clear
4:56 PM 71.1 °F 50.0 °F 47% 30.02 in 10.0 mi West 8.1 mph - N/A   Clear
5:56 PM 70.0 °F 53.1 °F 55% 30.04 in 10.0 mi West 5.8 mph - N/A   Overcast
6:56 PM 68.0 °F 53.1 °F 59% 30.01 in 10.0 mi SW 4.6 mph - N/A   Overcast
7:56 PM 64.9 °F 55.0 °F 70% 30.04 in 10.0 mi NW 5.8 mph - 0.00 in   Clear
8:56 PM 64.0 °F 51.1 °F 63% 30.04 in 10.0 mi WSW 6.9 mph - N/A   Partly Cloudy
9:56 PM 61.0 °F 52.0 °F 72% 30.04 in 10.0 mi West 3.5 mph - N/A   Clear
10:56 PM 59.0 °F 53.1 °F 81% 30.05 in 10.0 mi Calm Calm - N/A   Mostly Cloudy
11:56 PM 59.0 °F 53.1 °F 81% 30.05 in 10.0 mi WSW 3.5 mph - N/A   Overcast